TimePDT,TemperatureF,Dew PointF,Humidity,Sea Level PressureIn,VisibilityMPH,Wind Direction,Wind SpeedMPH,Gust SpeedMPH,PrecipitationIn,Events,Conditions,WindDirDegrees,DateUTC
12:56 AM,63.0,26.1,25,29.97,10.0,West,8.1,-,N/A,,Clear,260,2013-06-17 07:56:00
1:56 AM,60.1,24.1,25,29.97,10.0,West,4.6,-,N/A,,Clear,280,2013-06-17 08:56:00
2:56 AM,57.0,24.1,28,29.98,10.0,Calm,Calm,-,N/A,,Clear,0,2013-06-17 09:56:00
3:56 AM,46.9,21.9,37,29.99,10.0,West,9.2,-,N/A,,Clear,260,2013-06-17 10:56:00
4:56 AM,45.0,21.9,40,30.01,10.0,South,3.5,-,N/A,,Clear,170,2013-06-17 11:56:00
5:56 AM,48.0,24.1,39,30.02,10.0,SSE,4.6,-,N/A,,Clear,150,2013-06-17 12:56:00
6:56 AM,55.9,26.1,32,30.01,10.0,SSE,3.5,-,N/A,,Clear,150,2013-06-17 13:56:00
7:56 AM,64.9,26.1,23,30.00,10.0,Calm,Calm,-,N/A,,Clear,0,2013-06-17 14:56:00
8:56 AM,72.0,26.1,18,29.99,10.0,NW,3.5,-,N/A,,Clear,320,2013-06-17 15:56:00
9:56 AM,77.0,25.0,15,29.97,10.0,Variable,5.8,-,N/A,,Clear,0,2013-06-17 16:56:00
10:56 AM,80.1,26.1,14,29.94,10.0,Variable,3.5,-,N/A,,Clear,0,2013-06-17 17:56:00
11:56 AM,81.0,27.0,14,29.91,10.0,SW,4.6,-,N/A,,Clear,220,2013-06-17 18:56:00
12:56 PM,84.9,27.0,12,29.89,10.0,Variable,4.6,-,N/A,,Clear,0,2013-06-17 19:56:00
1:56 PM,86.0,24.1,10,29.86,10.0,Variable,6.9,19.6,N/A,,Clear,0,2013-06-17 20:56:00
2:56 PM,87.1,24.1,10,29.84,10.0,South,8.1,20.7,N/A,,Clear,180,2013-06-17 21:56:00
3:56 PM,90.0,21.9,8,29.83,10.0,SSW,19.6,32.2,N/A,,Clear,210,2013-06-17 22:56:00
4:13 PM,89.6,23.0,9,29.95,10.0,SW,24.2,28.8,N/A,,Clear,230,2013-06-17 23:13:00
4:56 PM,89.1,21.9,9,29.82,10.0,WSW,15.0,33.4,N/A,,Clear,240,2013-06-17 23:56:00
5:56 PM,87.1,19.0,8,29.81,10.0,WSW,11.5,23.0,N/A,,Clear,240,2013-06-18 00:56:00
6:56 PM,84.9,12.9,7,29.79,10.0,WSW,15.0,21.9,N/A,,Clear,250,2013-06-18 01:56:00
7:56 PM,79.0,18.0,10,29.80,10.0,West,16.1,26.5,N/A,,Clear,270,2013-06-18 02:56:00
8:56 PM,73.0,19.0,13,29.81,10.0,West,10.4,-,N/A,,Clear,260,2013-06-18 03:56:00
9:56 PM,69.1,19.0,15,29.84,10.0,West,5.8,-,N/A,,Clear,260,2013-06-18 04:56:00
10:56 PM,66.9,21.0,17,29.84,10.0,Variable,3.5,-,N/A,,Clear,0,2013-06-18 05:56:00
11:56 PM,66.9,24.1,20,29.84,10.0,WNW,6.9,-,N/A,,Clear,300,2013-06-18 06:56:00